Weather History for EBBL - October, 2012

Change the Weather History Date:

Sunday, October 7, 2012

  Actual Average Record
Temperature  
Mean Temperature 48 °F -  
Max Temperature 61 °F 52 °F 69 °F (1997)
Min Temperature 35 °F 43 °F 32 °F (1996)
Degree Days  
Heating Degree Days 17    
Moisture  
Dew Point 41 °F    
Average Humidity 86    
Maximum Humidity 100    
Minimum Humidity 42    
Precipitation  
Precipitation 0.00 in - - ()
Sea Level Pressure  
Sea Level Pressure 30.12 in    
Wind  
Wind Speed 2 mph ()    
Max Wind Speed 8 mph    
Max Gust Speed -    
Visibility 4.0 miles    
Events Fog    
Averages and records for this station are not official NWS values.
T = Trace of Precipitation, MM = Missing Value Source: Averaged Metar Reports

Daily Weather History Graph

Daily Weather History Graph

Search for Another Location

Airport or City:

Trip Planner

Search our weather history database for the weather conditions in past years. The results will help you decide how hot, cold, wet, or windy it might be!

Date:

Astronomy

Oct. 07, 2012 Rise Set
Actual Time 7:48 AM CEST 7:01 PM CEST
Civil Twilight 7:15 AM CEST 7:34 PM CEST
Nautical Twilight 6:37 AM CEST 8:13 PM CEST
Astronomical Twilight 5:58 AM CEST 8:52 PM CEST
Moon 11:30 PM CEST (10/7) 2:44 PM CEST (10/7)
Length of Visible Light 12h 19m
Length of Day
11h 13m
Waning Gibbous, 58% of the Moon is Illuminated
Oct 7
Waning Gibbous
Oct 8
Last Quarter
Oct 15
New
Oct 22
First Quarter
Oct 29
Full

Hourly Weather History & Observations

Time (CEST) Temp. Windchill Dew Point Humidity Pressure Visibility Wind Dir Wind Speed Gust Speed Precip Events Conditions
12:25 AM 44.6 °F - 42.8 °F 93% 29.98 in 0.0 mi Calm Calm - N/A   Mostly Cloudy
12:55 AM 44.6 °F - 44.6 °F 100% 29.98 in 0.0 mi Calm Calm - N/A Fog Fog
1:25 AM 44.6 °F - 44.6 °F 100% 29.98 in 0.0 mi Calm Calm - N/A Fog Fog
1:55 AM 44.6 °F - 42.8 °F 93% 30.01 in 0.0 mi Calm Calm - N/A Fog Fog
2:00 AM 44 °F - 43 °F 95% 30.01 in 0 mi Calm Calm - -   Overcast
2:25 AM 42.8 °F - 41.0 °F 93% 30.01 in 0.0 mi Variable 1.2 mph - N/A Fog Fog
2:55 AM 41.0 °F - 39.2 °F 93% 30.01 in 0.0 mi Calm Calm - N/A   Mostly Cloudy
3:25 AM 41.0 °F - 39.2 °F 93% 30.01 in 0.0 mi Variable 1.2 mph - N/A   Mostly Cloudy
3:55 AM 41.0 °F - 39.2 °F 93% 30.01 in 0.0 mi Variable 2.3 mph - N/A Fog Fog
4:25 AM 39.2 °F - 37.4 °F 93% 30.01 in 0.0 mi Variable 2.3 mph - N/A   Scattered Clouds
4:55 AM 39.2 °F - 37.4 °F 93% 30.01 in 0.0 mi Variable 2.3 mph - N/A   Scattered Clouds
5:00 AM 39 °F - 37 °F 91% 30.04 in 0 mi 2.2 mph - - Fog Partial Fog
5:25 AM 37.4 °F - 37.4 °F 100% 30.01 in 0.1 mi Variable 2.3 mph - N/A   Partly Cloudy
5:55 AM 37.4 °F - 35.6 °F 93% 30.01 in 0.1 mi Variable 2.3 mph - N/A Fog Fog
6:25 AM 37.4 °F 34.9 °F 35.6 °F 93% 30.04 in 0.2 mi Variable 3.5 mph - N/A Fog Fog
6:55 AM 35.6 °F - 35.6 °F 100% 30.04 in 0.3 mi Variable 1.2 mph - N/A Fog Fog
7:07 AM 35.6 °F 32.8 °F 35.6 °F 100% 30.04 in 0.5 mi Variable 3.5 mph - N/A   Partly Cloudy
7:11 AM 35.6 °F 32.8 °F 35.6 °F 100% 30.04 in 1.0 mi Variable 3.5 mph - N/A   Partly Cloudy
7:17 AM 35.6 °F - 33.8 °F 93% 30.04 in 2.5 mi Variable 2.3 mph - N/A   Partly Cloudy
7:25 AM 35.6 °F - 33.8 °F 93% 30.04 in 2.5 mi Variable 2.3 mph - N/A   Partly Cloudy
7:38 AM 35.6 °F 32.8 °F 33.8 °F 93% 30.06 in 2.2 mi Variable 3.5 mph - N/A   Partly Cloudy
7:55 AM 35.6 °F 31.7 °F 35.6 °F 100% 30.06 in 2.2 mi SW 4.6 mph - N/A   Partly Cloudy
8:00 AM 36 °F - 35 °F 96% 30.08 in 2 mi 4.5 mph - - Fog Light Fog
8:01 AM 35.6 °F 32.8 °F 35.6 °F 100% 30.06 in 2.5 mi Variable 3.5 mph - N/A   Partly Cloudy
8:02 AM 35.6 °F 32.8 °F 35.6 °F 100% 30.06 in 3.1 mi Variable 3.5 mph - N/A   Partly Cloudy
8:03 AM 35.6 °F 32.8 °F 35.6 °F 100% 30.06 in 5.0 mi Variable 3.5 mph - N/A   Scattered Clouds
8:25 AM 37.4 °F - 35.6 °F 93% 30.06 in 6.2 mi Variable 2.3 mph - N/A   Scattered Clouds
8:55 AM 39.2 °F 37.0 °F 37.4 °F 93% 30.06 in 6.2 mi Variable 3.5 mph - N/A   Scattered Clouds
9:25 AM 42.8 °F - 41.0 °F 93% 30.09 in 6.2 mi Variable 1.2 mph - N/A   Scattered Clouds
9:55 AM 44.6 °F - 44.6 °F 100% 30.09 in 6.2 mi Variable 2.3 mph - N/A   Mostly Cloudy
10:25 AM 48.2 °F - 46.4 °F 93% 30.12 in 6.2 mi WSW 4.6 mph - N/A   Scattered Clouds
10:55 AM 53.6 °F - 50.0 °F 88% 30.12 in 6.2 mi Variable 3.5 mph - N/A   Partly Cloudy
11:00 AM 53 °F - 49 °F 82% 30.14 in 9 mi 2.2 mph - -   Scattered Clouds
11:25 AM 55.4 °F - 48.2 °F 77% 30.12 in 6.2 mi North 6.9 mph - N/A   Partly Cloudy
11:55 AM 57.2 °F - 50.0 °F 77% 30.15 in 6.2 mi North 4.6 mph - N/A   Partly Cloudy
12:25 PM 57.2 °F - 44.6 °F 63% 30.15 in 6.2 mi North 8.1 mph - N/A   Partly Cloudy
12:55 PM 57.2 °F - 42.8 °F 59% 30.15 in 6.2 mi NNW 6.9 mph - N/A   Partly Cloudy
1:25 PM 57.2 °F - 44.6 °F 63% 30.18 in 6.2 mi North 6.9 mph - N/A   Scattered Clouds
1:55 PM 57.2 °F - 44.6 °F 63% 30.18 in 6.2 mi NW 5.8 mph - N/A   Scattered Clouds
2:25 PM 59.0 °F - 42.8 °F 55% 30.18 in 6.2 mi North 5.8 mph - N/A   Scattered Clouds
2:55 PM 57.2 °F - 42.8 °F 59% 30.18 in 6.2 mi NNW 4.6 mph - N/A   Scattered Clouds
3:25 PM 60.8 °F - 44.6 °F 55% 30.18 in 6.2 mi WNW 5.8 mph - N/A   Scattered Clouds
3:55 PM 60.8 °F - 41.0 °F 48% 30.18 in 6.2 mi NW 6.9 mph - N/A   Partly Cloudy
4:25 PM 60.8 °F - 42.8 °F 52% 30.21 in 6.2 mi WNW 6.9 mph - N/A   Partly Cloudy
4:55 PM 57.2 °F - 41.0 °F 55% 30.21 in 6.2 mi NW 5.8 mph - N/A   Partly Cloudy
5:00 PM 57 °F - 40 °F 42% 30.21 in 25 mi WNW 6.7 mph - -   Scattered Clouds
5:25 PM 55.4 °F - 42.8 °F 63% 30.21 in 6.2 mi WNW 4.6 mph - N/A   Scattered Clouds
5:55 PM 51.8 °F - 42.8 °F 71% 30.21 in 6.2 mi Variable 3.5 mph - N/A   Scattered Clouds
6:25 PM 50.0 °F - 44.6 °F 82% 30.21 in 6.2 mi Variable 2.3 mph - N/A   Scattered Clouds
6:55 PM 48.2 °F - 42.8 °F 82% 30.21 in 6.2 mi Calm Calm - N/A   Scattered Clouds
7:25 PM 44.6 °F - 42.8 °F 93% 30.21 in 6.2 mi Variable 1.2 mph - N/A   Scattered Clouds
7:55 PM 44.6 °F 43.1 °F 42.8 °F 93% 30.21 in 6.2 mi Variable 3.5 mph - N/A   Scattered Clouds
8:00 PM 45 °F - 43 °F 89% 30.24 in 22 mi 2.2 mph - -   Clear
8:25 PM 42.8 °F - 41.0 °F 93% 30.21 in 6.2 mi Variable 1.2 mph - N/A   Scattered Clouds
8:55 PM 42.8 °F - 41.0 °F 93% 30.24 in 6.2 mi Variable 1.2 mph - N/A   Scattered Clouds
9:25 PM 41.0 °F - 41.0 °F 100% 30.24 in 6.2 mi Variable 2.3 mph - N/A   Scattered Clouds
9:55 PM 41.0 °F - 41.0 °F 100% 30.24 in 6.2 mi Variable 2.3 mph - N/A   Scattered Clouds
10:25 PM 41.0 °F - 39.2 °F 93% 30.24 in 6.2 mi Calm Calm - N/A   Scattered Clouds
10:55 PM 41.0 °F - 39.2 °F 93% 30.24 in 6.2 mi Calm Calm - N/A   Scattered Clouds
11:00 PM 40 °F - 39 °F 95% 30.26 in 9 mi Calm Calm - -   Clear
11:25 PM 39.2 °F - 37.4 °F 93% 30.24 in 6.2 mi Variable 1.2 mph - N/A   Scattered Clouds
11:55 PM 39.2 °F - 37.4 °F 93% 30.24 in 6.2 mi Variable 1.2 mph - N/A   Scattered Clouds